Hourly Weather Roundup
Issued by NWS Central Illinois

Home | Current Version | Previous Version | Text Only | Print | Product List | Glossary On
Versions: 1 2 3 4 5 6 7 8 9 10 11 12 13 14 15 16 17 18 19 20 21 22 23 24 25 26 27 28 29 30 31 32 33 34 35 36 37 38 39 40 41 42 43 44 45 46 47 48 49 50
000
NZUS43 KILX 020310
HWRILX

AREA WEATHER ROUNDUP
NATIONAL WEATHER SERVICE, LINCOLN IL
1000 PM CDT SAT AUG 01 2015


CITY           SKY/WX    TMP DP  RH WIND       PRES   REMARKS
BLOOMINGTON    MOCLDY    73  66  78 SW7       29.98R
CHAMPAIGN      PTCLDY    69  64  84 SW6       29.98R
DANVILLE       PTCLDY    65  64  97 CALM      29.95R
DECATUR        PTCLDY    73  63  70 SW6       29.98R
EFFINGHAM      PTCLDY    69  65  85 CALM      30.00S
FLORA          MOCLDY    69  65  86 CALM      29.99S
GALESBURG      PTCLDY    72  68  87 S5        29.94S
JACKSONVILLE   CLEAR     75  69  82 CALM      29.97R
LACON          PTCLDY    73  64  73 SW3       29.93S
LAWRENCEVILLE  MOCLDY    69  65  86 SE3       29.99R
LITCHFIELD     CLEAR     71  65  84 S3        29.98S
$$


CITY           SKY/WX    TMP DP  RH WIND       PRES   REMARKS
LINCOLN        MOCLDY    72  65  79 CALM      29.96R
MACOMB         CLEAR     73  71  93 S5        29.97R
MATTOON        PTCLDY    73  62  68 SW6       29.97S
MT CARMEL AP   MOCLDY    70  64  83 CALM      29.99R
OLNEY-NOBLE AP MOCLDY    68  64  88 CALM      29.99S
PARIS          PTCLDY    65  64  94 SW3       29.99R
PEORIA         PTCLDY    76  64  66 S5        29.95R
PONTIAC        MOCLDY    73  68  84 SW3       29.95S
RANTOUL        PTCLDY    73  66  77 SW6       29.97R
ROBINSON       PTCLDY    66  64  92 CALM      29.99R
SPRINGFIELD    PTCLDY    72  65  78 S3        29.97R
TAYLORVILLE    PTCLDY    70  64  83 CALM      29.98S
$$

...REGIONAL REPORTS...


CITY           SKY/WX    TMP DP  RH WIND       PRES   REMARKS
CHICAGO O`HARE PTCLDY    77  63  61 SW8       29.90S
KANKAKEE       PTCLDY    71  67  89 CALM      29.95R
MOLINE         PTCLDY    74  67  78 S7        29.91S
MOUNT STERLING NOT AVBL
MOUNT VERNON   PTCLDY    68  63  83 CALM      30.00R
PITTSFIELD     CLEAR     74  70  86 CALM      29.98R
QUINCY         CLEAR     75  71  87 S5        29.97R
ROCKFORD       CLEAR     72  65  78 S5        29.92R
$$


CITY           SKY/WX    TMP DP  RH WIND       PRES   REMARKS
BURLINGTON     CLEAR     75  72  90 S6        29.93R
CEDAR RAPIDS   CLEAR     72  71  97 S3        29.91R
DES MOINES     PTCLDY    79  71  76 S6        29.90R HX  82
KIRKSVILLE     LGT RAIN  69  63  81 SW5       29.98R
OTTUMWA        CLEAR     74  71  91 S6        29.91R
ST LOUIS       CLOUDY    85  70  60 SW3       29.98R HX  89
$$


CITY           SKY/WX    TMP DP  RH WIND       PRES   REMARKS
TERRE HAUTE    PTCLDY    67  62  84 CALM      29.98R
EVANSVILLE     PTCLDY    72  64  76 CALM      29.99R
INDIANAPOLIS   PTCLDY    72  59  63 W6        29.97F
LAFAYETTE      PTCLDY    69  64  84 W3        29.96S
MADISON        PTCLDY    71  62  73 S3        29.87S
MILWAUKEE      CLEAR     72  59  63 S5        29.87F
$$




USA.gov is the U.S. government's official web portal to all federal, state and local government web resources and services.